Regional Weather Roundup
Issued by NWS Little Rock, AR

Home | Current Version | Previous Version | Text Only | Print | Product List | Glossary Off
Versions: 1 2 3 4 5 6 7 8 9 10 11 12 13 14 15 16 17 18 19 20 21 22 23 24 25 26 27 28 29 30 31 32 33 34 35 36 37 38 39 40 41 42 43 44 45 46 47 48 49

000
ASUS44 KLZK 252105
RWRLZK

WEATHER ROUNDUP FOR ARKANSAS
NATIONAL WEATHER SERVICE LITTLE ROCK AR
300 PM CST THU DEC 25 2014

NOTE: "FAIR" INDICATES FEW OR NO CLOUDS BELOW 12,000 FEET WITH NO
SIGNIFICANT WEATHER AND/OR OBSTRUCTIONS TO VISIBILITY.

ARZ001-003-010-029-252200-
NORTHWEST ARKANSAS

CITY           SKY/WX    TMP DP  RH WIND       PRES   REMARKS
FAYETTEVILLE   MOSUNNY   54  27  35 S13G28    29.90F
FORT SMITH     PTSUNNY   57  25  29 S9        29.95S
HARRISON       SUNNY     51  29  42 S14       29.95S
BENTONVILLE    PTSUNNY   54  27  35 S20       29.89S
ROGERS         MOSUNNY   53  27  36 S25G32    29.88F
SILOAM SPGS    MOSUNNY   55  28  35 S20G29    29.89R
HIGHFILL       PTSUNNY   54  27  35 S22G28    29.87F
SPRINGDALE     MOSUNNY   54  25  32 S17G35    29.91F
$$

ARZ004-005-016-252200-
NORTH CENTRAL ARKANSAS

CITY           SKY/WX    TMP DP  RH WIND       PRES   REMARKS
BATESVILLE     MOSUNNY   54  36  50 SE12      30.04F
FLIPPIN        SUNNY     54  27  35 S12G21    29.96F
MTN HOME       SUNNY     53  29  39 S7        29.97F
$$

ARZ040-041-252200-
WEST CENTRAL ARKANSAS

CITY           SKY/WX    TMP DP  RH WIND       PRES   REMARKS
MENA           MOSUNNY   59  30  33 SW9G20    29.97S
MOUNT IDA      SUNNY     57  28  33 VRB7      29.97F
$$

ARZ009-017-025-026-028-252200-
NORTHEAST ARKANSAS

CITY           SKY/WX    TMP DP  RH WIND       PRES   REMARKS
CORNING          N/A     50  37  62 S17G24    30.08S
JONESBORO      SUNNY     51  38  60 S15G23    30.09F
NEWPORT        MOSUNNY   54  37  52 S10       30.07F
WALNUT RIDGE   SUNNY     52  37  58 S17       30.06S
BLYTHEVILLE    SUNNY     52  36  54 S15G22    30.12S
$$

ARZ022-023-033-042-044-252200-
CENTRAL ARKANSAS

CITY           SKY/WX    TMP DP  RH WIND       PRES   REMARKS
LITTLE ROCK    MOSUNNY   58  29  33 S9        30.05F
N LITTLE ROCK  MOSUNNY   56  34  42 S10G18    30.05F
JACKSONVILLE   SUNNY     57  33  40 S8        30.04F
SEARCY         MOSUNNY   55  36  48 S14G20    30.07F
HOT SPRINGS    SUNNY     57  31  37 S10       30.02F
RUSSELLVILLE   SUNNY     57  30  35 S8G17     29.99F
CLINTON        FAIR      55  32  41 S10       30.03F
$$

ARZ036-252200-
EAST ARKANSAS

CITY           SKY/WX    TMP DP  RH WIND       PRES   REMARKS
WEST MEMPHIS   SUNNY     52  38  58 S17       30.12F
$$

ARZ050-053-066-070-073-252200-
SOUTHWEST ARKANSAS

CITY           SKY/WX    TMP DP  RH WIND       PRES   REMARKS
ARKADELPHIA    FAIR      57  38  49 S9        30.05F
CAMDEN         MOSUNNY   63  30  29 MISG      30.07S
TEXARKANA      MOSUNNY   60  30  32 S14G22    30.02F
EL DORADO      SUNNY     59  33  37 S13G18    30.08F
DE QUEEN       MOSUNNY   59  31  34 S13       29.99R
$$

ARZ056-057-069-252200-
SOUTHEAST ARKANSAS

CITY           SKY/WX    TMP DP  RH WIND       PRES   REMARKS
PINE BLUFF     SUNNY     56  34  43 S12       30.08F
STUTTGART      SUNNY     55  36  47 SE17G23   30.09F
MONTICELLO     SUNNY     57  36  45 S9G17     30.10F

$$





USA.gov is the U.S. government's official web portal to all federal, state and local government web resources and services.